Dorothea — WDC4584 — position and weather

sailwx.info

Track history (hours):
 
Tides and Currents Weather Stations Pressure Air Temp Water Temp Dewpoint Dewpoint Depression Visibility Wind Speed Wind Dir Waves Ship Positions

Dorothea

Owner: Dorothea Corp., Seattle, WA. More information available from US FCC via Universal Licensing System and Coast Guard Vessel Documentation Center.

Last reported at 2014-Sep-03 19:55 UTC. Time now 2014-Dec-20 15:09 UTC.
Position N 47°40' W 122°23'.
Warning: this ship's position is months out of date.

Length 26 m.

Type: Fishing. MMSI: 367026930.

Date/timePositionNaut miles runAvg speedWind from/ knotsBaromVisibWave heightAir tempDewpointWater temp
2014-Sep-03 19:55N 47°40' W 122°23'0 0.0
2014-Sep-03 19:35N 47°40' W 122°23'0 0.0
2014-Sep-03 19:33N 47°40' W 122°23'0 0.0
2014-Sep-03 18:33N 47°40' W 122°23'0 0.1
2014-Sep-03 18:29N 47°40' W 122°23'0 0.0
2014-Sep-03 17:33N 47°40' W 122°23'0 0.0
2014-Sep-03 17:29N 47°40' W 122°23'0 0.0
2014-Sep-03 16:34N 47°40' W 122°23'0 0.0
2014-Sep-03 16:29N 47°40' W 122°23'0 0.0
2014-Sep-03 15:34N 47°40' W 122°23'0 0.1
2014-Sep-03 15:29N 47°40' W 122°23'0 0.0
2014-Sep-03 14:34N 47°40' W 122°23'0 7.2
2014-Sep-03 14:33N 47°40' W 122°23'0 0.0
2014-Sep-03 13:33N 47°40' W 122°23'0 0.0
2014-Sep-03 13:33N 47°40' W 122°23'0 0.0
2014-Sep-03 12:34N 47°40' W 122°23'0 0.0
2014-Sep-03 12:33N 47°40' W 122°23'0 0.0
2014-Sep-03 11:33N 47°40' W 122°23'0 0.0
2014-Sep-03 11:33N 47°40' W 122°23'0 0.0
2014-Sep-03 10:33N 47°40' W 122°23'0 0.0
2014-Sep-03 10:33N 47°40' W 122°23'0 0.0
2014-Sep-03 09:34N 47°40' W 122°23'0 0.0
2014-Sep-03 09:33N 47°40' W 122°23'0 0.0
2014-Sep-03 08:33N 47°40' W 122°23'0 0.0
2014-Sep-03 08:32N 47°40' W 122°23'0 0.0
2014-Sep-03 07:34N 47°40' W 122°23'0 0.0
2014-Sep-03 07:32N 47°40' W 122°23'0 0.0
2014-Sep-03 06:33N 47°40' W 122°23'0 0.0
2014-Sep-03 06:32N 47°40' W 122°23'0 0.0
2014-Sep-03 05:52N 47°40' W 122°23'0 0.0
2014-Sep-03 05:34N 47°40' W 122°23'0 0.0
2014-Sep-03 04:23N 47°40' W 122°23'0 0.0
2014-Sep-03 04:01N 47°40' W 122°23'0 0.0
2014-Sep-03 03:34N 47°40' W 122°23'0 0.1
2014-Sep-03 03:31N 47°40' W 122°23'0 0.0
2014-Sep-03 02:33N 47°40' W 122°23'0 0.0
2014-Sep-03 02:19N 47°40' W 122°23'0 0.0
2014-Sep-03 01:33N 47°40' W 122°23'0 0.0
2014-Sep-03 01:29N 47°40' W 122°23'0 0.0
2014-Sep-03 00:33N 47°40' W 122°23'0 0.0
2014-Sep-03 00:29N 47°40' W 122°23'0 0.0
2014-Sep-02 23:34N 47°40' W 122°23'0 0.0
2014-Sep-02 23:33N 47°40' W 122°23'0 0.0
2014-Sep-02 22:34N 47°40' W 122°23'0 0.0
2014-Sep-02 22:33N 47°40' W 122°23'1 0.6
2014-Sep-02 21:33N 47°40' W 122°23'0 0.0
2014-Sep-02 21:33N 47°40' W 122°23'0 0.0
2014-Sep-02 20:34N 47°40' W 122°23'0 0.0
2014-Sep-02 20:33N 47°40' W 122°23'0 0.0
2014-Sep-02 19:33N 47°40' W 122°23'0 0.0
2014-Sep-02 19:33N 47°40' W 122°23'0 0.0
2014-Sep-02 18:34N 47°40' W 122°23'0 0.0
2014-Sep-02 18:33N 47°40' W 122°23'0 0.0
2014-Sep-02 17:33N 47°40' W 122°23'0 0.0
2014-Sep-02 17:33N 47°40' W 122°23'0 0.0
2014-Sep-02 16:34N 47°40' W 122°23'0 0.0
2014-Sep-02 16:26N 47°40' W 122°23'1 0.7
2014-Sep-02 15:34N 47°40' W 122°23'0 0.0
2014-Sep-02 15:32N 47°40' W 122°23'0 0.0
2014-Sep-02 14:33N 47°40' W 122°23'0 0.2
2014-Sep-02 14:31N 47°40' W 122°23'0 0.0
2014-Sep-02 13:34N 47°40' W 122°23'0 0.2
2014-Sep-02 13:31N 47°40' W 122°23'0 0.0
2014-Sep-02 12:33N 47°40' W 122°23'0 0.1
2014-Sep-02 12:26N 47°40' W 122°23'0 0.0
2014-Sep-02 11:33N 47°40' W 122°23'0 0.1
2014-Sep-02 11:31N 47°40' W 122°23'0 0.0
2014-Sep-02 10:33N 47°40' W 122°23'0 0.0
2014-Sep-02 10:26N 47°40' W 122°23'1 1.5
2014-Sep-02 09:34N 47°40' W 122°24'0 4.3
2014-Sep-02 09:30N 47°40' W 122°25'6 6.1
2014-Sep-02 08:33N 47°46' W 122°27'0 6.6
2014-Sep-02 08:30N 47°46' W 122°27'6 6.7
2014-Sep-02 07:34N 47°52' W 122°29'0 6.0
2014-Sep-02 07:30N 47°53' W 122°29'5 5.8
2014-Sep-02 06:33N 47°57' W 122°34'7 6.4
2014-Sep-02 05:30N 48°03' W 122°39'8 7.0
2014-Sep-02 04:24N 48°09' W 122°45'8 7.2
2014-Sep-02 03:14N 48°18' W 122°48'8 7.2
2014-Sep-02 02:05N 48°26' W 122°45'4 7.2
2014-Sep-02 01:34N 48°30' W 122°45'7 7.3
2014-Sep-02 00:33N 48°37' W 122°45'7 6.9
2014-Sep-01 23:33N 48°44' W 122°46'7 7.4
2014-Sep-01 22:34N 48°48' W 122°55'7 7.3
2014-Sep-01 21:34N 48°52' W 123°04'7 7.4
2014-Sep-01 20:33N 48°57' W 123°13'7 7.4
2014-Sep-01 19:34N 49°02' W 123°22'7 6.9
2014-Sep-01 18:34N 49°06' W 123°29'6 6.4
2014-Sep-01 17:33N 49°11' W 123°37'6 6.4
2014-Sep-01 16:34N 49°14' W 123°45'7 6.9
2014-Sep-01 15:34N 49°18' W 123°54'7 6.8
2014-Sep-01 14:31N 49°21' W 124°04'7 6.8
2014-Sep-01 13:29N 49°23' W 124°14'7 7.3
2014-Sep-01 12:33N 49°26' W 124°24'8 7.3
2014-Sep-01 11:31N 49°31' W 124°32'7 7.3
2014-Sep-01 10:33N 49°36' W 124°39'8 7.3
2014-Sep-01 09:24N 49°43' W 124°47'7 6.0
2014-Sep-01 08:10N 49°48' W 124°56'71 6.7
2014-Aug-31 21:33N 50°30' W 126°25'7 6.6
2014-Aug-31 20:29N 50°31' W 126°36'7 6.6
2014-Aug-31 19:22N 50°33' W 126°47'5 6.5
2014-Aug-31 18:33N 50°34' W 126°55'7 6.1
2014-Aug-31 17:28N 50°37' W 127°05'6 6.5
2014-Aug-31 16:33N 50°40' W 127°13'7 6.9
2014-Aug-31 15:29N 50°45' W 127°21'6 6.7
2014-Aug-31 14:33N 50°50' W 127°28'7 6.7
2014-Aug-31 13:33N 50°53' W 127°37'8 7.9
2014-Aug-31 12:32N 50°58' W 127°46'7 7.2
2014-Aug-31 11:33N 51°05' W 127°50'8 6.8
2014-Aug-31 10:26N 51°13' W 127°53'13 7.0
2014-Aug-31 08:32N 51°26' W 127°51'7 7.1
2014-Aug-31 07:31N 51°33' W 127°52'28 6.9
2014-Aug-31 03:32N 52°00' W 127°56'5 5.4
2014-Aug-31 02:32N 52°05' W 128°02'6 6.2
2014-Aug-31 01:33N 52°09' W 128°08'6 5.5
2014-Aug-31 00:33N 52°14' W 128°13'7 7.5
2014-Aug-30 23:33N 52°16' W 128°25'142 6.2
2014-Aug-30 00:25N 54°16' W 130°32'6 6.5
2014-Aug-29 23:33N 54°21' W 130°36'7 6.6
2014-Aug-29 22:33N 54°28' W 130°37'7 6.4
2014-Aug-29 21:30N 54°34' W 130°39'  
Track history (hours):
 
Tides and Currents Weather Stations Pressure Air Temp Water Temp Dewpoint Dewpoint Depression Visibility Wind Speed Wind Dir Waves Ship Positions

Dorothea

Owner: Dorothea Corp., Seattle, WA. More information available from US FCC via Universal Licensing System and Coast Guard Vessel Documentation Center.

Last reported at 2014-Sep-03 19:55 UTC. Time now 2014-Dec-20 15:09 UTC.
Position N 47°40' W 122°23'.
Warning: this ship's position is months out of date.

Length 26 m.

Type: Fishing. MMSI: 367026930.

Date/timePositionNaut miles runAvg speedWind from/ knotsBaromVisibWave heightAir tempDewpointWater temp
2014-Sep-03 19:55N 47°40' W 122°23'0 0.0
2014-Sep-03 19:35N 47°40' W 122°23'0 0.0
2014-Sep-03 19:33N 47°40' W 122°23'0 0.0
2014-Sep-03 18:33N 47°40' W 122°23'0 0.1
2014-Sep-03 18:29N 47°40' W 122°23'0 0.0
2014-Sep-03 17:33N 47°40' W 122°23'0 0.0
2014-Sep-03 17:29N 47°40' W 122°23'0 0.0
2014-Sep-03 16:34N 47°40' W 122°23'0 0.0
2014-Sep-03 16:29N 47°40' W 122°23'0 0.0
2014-Sep-03 15:34N 47°40' W 122°23'0 0.1
2014-Sep-03 15:29N 47°40' W 122°23'0 0.0
2014-Sep-03 14:34N 47°40' W 122°23'0 7.2
2014-Sep-03 14:33N 47°40' W 122°23'0 0.0
2014-Sep-03 13:33N 47°40' W 122°23'0 0.0
2014-Sep-03 13:33N 47°40' W 122°23'0 0.0
2014-Sep-03 12:34N 47°40' W 122°23'0 0.0
2014-Sep-03 12:33N 47°40' W 122°23'0 0.0
2014-Sep-03 11:33N 47°40' W 122°23'0 0.0
2014-Sep-03 11:33N 47°40' W 122°23'0 0.0
2014-Sep-03 10:33N 47°40' W 122°23'0 0.0
2014-Sep-03 10:33N 47°40' W 122°23'0 0.0
2014-Sep-03 09:34N 47°40' W 122°23'0 0.0
2014-Sep-03 09:33N 47°40' W 122°23'0 0.0
2014-Sep-03 08:33N 47°40' W 122°23'0 0.0
2014-Sep-03 08:32N 47°40' W 122°23'0 0.0
2014-Sep-03 07:34N 47°40' W 122°23'0 0.0
2014-Sep-03 07:32N 47°40' W 122°23'0 0.0
2014-Sep-03 06:33N 47°40' W 122°23'0 0.0
2014-Sep-03 06:32N 47°40' W 122°23'0 0.0
2014-Sep-03 05:52N 47°40' W 122°23'0 0.0
2014-Sep-03 05:34N 47°40' W 122°23'0 0.0
2014-Sep-03 04:23N 47°40' W 122°23'0 0.0
2014-Sep-03 04:01N 47°40' W 122°23'0 0.0
2014-Sep-03 03:34N 47°40' W 122°23'0 0.1
2014-Sep-03 03:31N 47°40' W 122°23'0 0.0
2014-Sep-03 02:33N 47°40' W 122°23'0 0.0
2014-Sep-03 02:19N 47°40' W 122°23'0 0.0
2014-Sep-03 01:33N 47°40' W 122°23'0 0.0
2014-Sep-03 01:29N 47°40' W 122°23'0 0.0
2014-Sep-03 00:33N 47°40' W 122°23'0 0.0
2014-Sep-03 00:29N 47°40' W 122°23'0 0.0
2014-Sep-02 23:34N 47°40' W 122°23'0 0.0
2014-Sep-02 23:33N 47°40' W 122°23'0 0.0
2014-Sep-02 22:34N 47°40' W 122°23'0 0.0
2014-Sep-02 22:33N 47°40' W 122°23'1 0.6
2014-Sep-02 21:33N 47°40' W 122°23'0 0.0
2014-Sep-02 21:33N 47°40' W 122°23'0 0.0
2014-Sep-02 20:34N 47°40' W 122°23'0 0.0
2014-Sep-02 20:33N 47°40' W 122°23'0 0.0
2014-Sep-02 19:33N 47°40' W 122°23'0 0.0
2014-Sep-02 19:33N 47°40' W 122°23'0 0.0
2014-Sep-02 18:34N 47°40' W 122°23'0 0.0
2014-Sep-02 18:33N 47°40' W 122°23'0 0.0
2014-Sep-02 17:33N 47°40' W 122°23'0 0.0
2014-Sep-02 17:33N 47°40' W 122°23'0 0.0
2014-Sep-02 16:34N 47°40' W 122°23'0 0.0
2014-Sep-02 16:26N 47°40' W 122°23'1 0.7
2014-Sep-02 15:34N 47°40' W 122°23'0 0.0
2014-Sep-02 15:32N 47°40' W 122°23'0 0.0
2014-Sep-02 14:33N 47°40' W 122°23'0 0.2
2014-Sep-02 14:31N 47°40' W 122°23'0 0.0
2014-Sep-02 13:34N 47°40' W 122°23'0 0.2
2014-Sep-02 13:31N 47°40' W 122°23'0 0.0
2014-Sep-02 12:33N 47°40' W 122°23'0 0.1
2014-Sep-02 12:26N 47°40' W 122°23'0 0.0
2014-Sep-02 11:33N 47°40' W 122°23'0 0.1
2014-Sep-02 11:31N 47°40' W 122°23'0 0.0
2014-Sep-02 10:33N 47°40' W 122°23'0 0.0
2014-Sep-02 10:26N 47°40' W 122°23'1 1.5
2014-Sep-02 09:34N 47°40' W 122°24'0 4.3
2014-Sep-02 09:30N 47°40' W 122°25'6 6.1
2014-Sep-02 08:33N 47°46' W 122°27'0 6.6
2014-Sep-02 08:30N 47°46' W 122°27'6 6.7
2014-Sep-02 07:34N 47°52' W 122°29'0 6.0
2014-Sep-02 07:30N 47°53' W 122°29'5 5.8
2014-Sep-02 06:33N 47°57' W 122°34'7 6.4
2014-Sep-02 05:30N 48°03' W 122°39'8 7.0
2014-Sep-02 04:24N 48°09' W 122°45'8 7.2
2014-Sep-02 03:14N 48°18' W 122°48'8 7.2
2014-Sep-02 02:05N 48°26' W 122°45'4 7.2
2014-Sep-02 01:34N 48°30' W 122°45'7 7.3
2014-Sep-02 00:33N 48°37' W 122°45'7 6.9
2014-Sep-01 23:33N 48°44' W 122°46'7 7.4
2014-Sep-01 22:34N 48°48' W 122°55'7 7.3
2014-Sep-01 21:34N 48°52' W 123°04'7 7.4
2014-Sep-01 20:33N 48°57' W 123°13'7 7.4
2014-Sep-01 19:34N 49°02' W 123°22'7 6.9
2014-Sep-01 18:34N 49°06' W 123°29'6 6.4
2014-Sep-01 17:33N 49°11' W 123°37'6 6.4
2014-Sep-01 16:34N 49°14' W 123°45'7 6.9
2014-Sep-01 15:34N 49°18' W 123°54'7 6.8
2014-Sep-01 14:31N 49°21' W 124°04'7 6.8
2014-Sep-01 13:29N 49°23' W 124°14'7 7.3
2014-Sep-01 12:33N 49°26' W 124°24'8 7.3
2014-Sep-01 11:31N 49°31' W 124°32'7 7.3
2014-Sep-01 10:33N 49°36' W 124°39'8 7.3
2014-Sep-01 09:24N 49°43' W 124°47'7 6.0
2014-Sep-01 08:10N 49°48' W 124°56'71 6.7
2014-Aug-31 21:33N 50°30' W 126°25'7 6.6
2014-Aug-31 20:29N 50°31' W 126°36'7 6.6
2014-Aug-31 19:22N 50°33' W 126°47'5 6.5
2014-Aug-31 18:33N 50°34' W 126°55'7 6.1
2014-Aug-31 17:28N 50°37' W 127°05'6 6.5
2014-Aug-31 16:33N 50°40' W 127°13'7 6.9
2014-Aug-31 15:29N 50°45' W 127°21'6 6.7
2014-Aug-31 14:33N 50°50' W 127°28'7 6.7
2014-Aug-31 13:33N 50°53' W 127°37'8 7.9
2014-Aug-31 12:32N 50°58' W 127°46'7 7.2
2014-Aug-31 11:33N 51°05' W 127°50'8 6.8
2014-Aug-31 10:26N 51°13' W 127°53'13 7.0
2014-Aug-31 08:32N 51°26' W 127°51'7 7.1
2014-Aug-31 07:31N 51°33' W 127°52'28 6.9
2014-Aug-31 03:32N 52°00' W 127°56'5 5.4
2014-Aug-31 02:32N 52°05' W 128°02'6 6.2
2014-Aug-31 01:33N 52°09' W 128°08'6 5.5
2014-Aug-31 00:33N 52°14' W 128°13'7 7.5
2014-Aug-30 23:33N 52°16' W 128°25'142 6.2
2014-Aug-30 00:25N 54°16' W 130°32'6 6.5
2014-Aug-29 23:33N 54°21' W 130°36'7 6.6
2014-Aug-29 22:33N 54°28' W 130°37'7 6.4
2014-Aug-29 21:30N 54°34' W 130°39'  

Dump ship's entire track history